Weather History for CWGT - February, 2013

Change the Weather History Date:

Thursday, February 21, 2013

  Actual Average Record
Temperature  
Mean Temperature 44 °F -  
Max Temperature 46 °F - - ()
Min Temperature 41 °F - - ()
Degree Days  
Heating Degree Days 22    
Moisture  
Dew Point 38 °F    
Average Humidity 80    
Maximum Humidity 89    
Minimum Humidity 62    
Precipitation  
Precipitation 0.00 in - - ()
Sea Level Pressure  
Sea Level Pressure 29.91 in    
Wind  
Wind Speed 16 mph ()    
Max Wind Speed 26 mph    
Max Gust Speed 32 mph    
T = Trace of Precipitation, MM = Missing Value Source: Averaged Metar Reports

Daily Weather History Graph

Daily Weather History Graph

Search for Another Location

Airport or City:

Trip Planner

Search our weather history database for the weather conditions in past years. The results will help you decide how hot, cold, wet, or windy it might be!

Date:

Astronomy

Feb. 21, 2013 Rise Set
Actual Time 7:15 AM PST 5:48 PM PST
Civil Twilight 6:42 AM PST 6:20 PM PST
Nautical Twilight 6:05 AM PST 6:57 PM PST
Astronomical Twilight 5:28 AM PST 7:34 PM PST
Moon 1:54 PM PST (2/21) 4:39 AM PST (2/21)
Length of Visible Light 11h 37m
Length of Day
10h 32m
Waxing Gibbous, 84% of the Moon is Illuminated
Feb 21
Waxing Gibbous
Feb 25
Full
Mar 4
Last Quarter
Mar 11
New
Mar 19
First Quarter

Hourly Weather History & Observations

Time (PST) Temp. Windchill Dew Point Humidity Pressure Visibility Wind Dir Wind Speed Gust Speed Precip Events Conditions
12:00 AM 41.7 °F 32.3 °F 38.7 °F 89% 29.94 in - ESE 21.9 mph - N/A   Unknown
1:00 AM 41.5 °F 34.6 °F 37.9 °F 87% 29.96 in - SE 12.7 mph - N/A   Unknown
2:00 AM 41.7 °F 32.9 °F 38.1 °F 87% 29.93 in - ESE 19.6 mph - N/A   Unknown
3:00 AM 42.3 °F 33.1 °F 39.2 °F 89% 29.91 in - ESE 21.9 mph - N/A   Unknown
4:00 AM 42 °F - 39 °F 84% 29.90 in - ESE 23.0 mph - -  
4:00 AM 42.4 °F 33.1 °F 38.8 °F 87% 29.90 in - ESE 23.0 mph - N/A   Unknown
5:00 AM 42.4 °F 32.4 °F 37.8 °F 83% 29.89 in - SE 26.5 mph - N/A   Unknown
6:00 AM 42.3 °F 33.1 °F 37.8 °F 84% 29.88 in - SE 21.9 mph - N/A   Unknown
7:00 AM 41.9 °F 32.3 °F 38.5 °F 88% 29.88 in - East 23.0 mph - N/A   Unknown
8:00 AM 41.9 °F 31.7 °F 38.5 °F 88% 29.86 in - ESE 26.5 mph 32.2 mph N/A   Unknown
9:00 AM 42.6 °F 33.3 °F 38.3 °F 85% 29.87 in - ESE 23.0 mph - N/A   Unknown
10:00 AM 44 °F - 39 °F 76% 29.87 in - ESE 23.0 mph - -  
10:00 AM 43.7 °F 34.7 °F 39.0 °F 84% 29.87 in - ESE 23.0 mph - N/A   Unknown
11:00 AM 44.2 °F 36.2 °F 37.2 °F 76% 29.88 in - ESE 19.6 mph - N/A   Unknown
12:00 PM 44.4 °F 36.9 °F 35.8 °F 72% 29.90 in - ESE 17.3 mph - N/A   Unknown
1:00 PM 46.8 °F - 35.4 °F 65% 29.91 in - SSE 6.9 mph - N/A   Unknown
2:00 PM 45.5 °F 40.3 °F 36.5 °F 71% 29.91 in - SE 10.4 mph - N/A   Unknown
3:00 PM 45.5 °F 40.8 °F 38.3 °F 76% 29.91 in - SE 9.2 mph - N/A   Unknown
4:00 PM 45 °F - 39 °F 72% 29.92 in - ESE 13.8 mph - -  
4:00 PM 44.6 °F 38.1 °F 39.0 °F 81% 29.92 in - ESE 13.8 mph - N/A   Unknown
5:00 PM 44.2 °F 37.6 °F 38.7 °F 81% 29.94 in - SE 13.8 mph - N/A   Unknown
6:00 PM 44.1 °F 37.4 °F 39.6 °F 84% 29.91 in - ESE 13.8 mph - N/A   Unknown
7:00 PM 44.1 °F 37.4 °F 40.8 °F 88% 29.92 in - SE 13.8 mph - N/A   Unknown
8:00 PM 44.6 °F 39.7 °F 39.6 °F 82% 29.94 in - SSE 9.2 mph - N/A   Unknown
9:00 PM 45.1 °F 37.1 °F 34.9 °F 67% 29.91 in - SW 20.7 mph - N/A   Unknown
10:00 PM 45 °F - 36 °F 62% 29.92 in - SSE 12.7 mph - -  
10:00 PM 45.0 °F 38.9 °F 36.3 °F 72% 29.92 in - SSE 12.7 mph - N/A   Unknown
11:00 PM 44.6 °F - 36.9 °F 74% 29.93 in - East 1.2 mph - N/A   Unknown